Location: Bucquoy
(50.1391°N, 2.7097°E)
Time: 01:54:11
(UTC+00:00)

Cosmos 1805 - Pass Details

Date: 06 May 2021
Orbit: 523 x 531 km, 82.5° (Epoch: 22 June)

Event Time Altitude Azimuth Distance (km) Brightness Sun altitude
Rises 01:17:27 0° 345° (NNW) 2,686 7.7 -20.3°
Reaches altitude 10° 01:19:39 10° 340° (NNW) 1,789 6.5 -20.2°
Maximum altitude 01:23:26 48° 266° (W) 697 3.6 -19.9°
Enters shadow 01:23:36 48° 256° (WSW) 700 3.5 -19.9°
